星链-1740 (STARLINK-1740 )

导读

STARLINK-1740是美国太空探索技术公司SpaceX星链卫星星座中的一颗卫星,于2020年10月6日发射入轨。星链项目旨在构建全球卫星互联网星座,为全球范围提供高速低延迟的互联网络服务,该卫星的入轨进一步扩充了星链星座的服务覆盖能力。

基本信息
目录编号:
46566
目录名称:
STARLINK-1740
国际标识:
2020-070AL
轨道中心:
EARTH
卫星名称:
星链-1740
卫星全名:
星链-1740 (STARLINK-1740 )
卫星状态:
已陨落 最后检测时间 2026-01-29
发射日期:
2020-10-06 UTC
国别 :
美国 (US)
星等 :
--
该卫星已列入 空间交会检测服务 Space Conjunction Data Service (SCDS) ,当前飞行风险评估等级: 无高风险
轨道信息
数据来源 国际轨道数据
星历时间: 2026-01-29T08:45:31+0800
轨道信息已过期225天
半长轴: 6539.149km
偏心率: 0.0005535
轨道倾角: 53.027°
近地点辐角 224.937°
升交点赤经 273.181°
平近点角 273.378°
近地点: 157.392km
远地点: 164.632km
周期: 87.708分钟
每日圈数: 16.418025
详细信息
固有亮度:
5
最大亮度:
2.5
卫星平台:
Starlink V1.0
覆盖范围:
全球
运营商:
太空探索技术公司
运营商所在国:
美国
制造商(研发单位):
太空探索技术公司
制造商所在国:
美国
使用方式:
暂无
卫星简介
星链(Starlink)计划是由太空探索技术公司(SpaceX)提出的一个巨型低轨卫星互联网星座项目,计划在2019年至2024年间在太空搭建由约1.2万颗卫星组成的“星链”网络,其中1584颗将部署在地球上空550千米处的近地轨道,并从2020年开始工作。该卫星仍在工作。
与全量物体交会距离演化趋势
与全量物体交会风险概率演化趋势